Pagrindinis puslapis
METAR-TAF:

METAR-TAF

Oro uostai :

Bandar Kangan, Iranas

platuma: 27-49-14N, ilguma: 52-21-08E, Aukštis: 662 m

Dabartinis oras

Ataskaita buvo paskelbta 46 minutes, ne 10:00 UTC
Vėjas 8 kt iš Šiaurės Vakarų
Temperatūra 14°C
Drėgmė 94%
Slėgis 1022 hPa

METAR: OIBJ 071000Z AUTO 32008KT //// // ////// 14/13 Q1022

Laikas: 14:16 (10:46 UTC)


TAF: trūkstamas

Orai ataskaitas ir orų prognozės (METAR, TAF).

turimą stotys yra geltonos ir raudonos taškus žemėlapyje.

Perkelti pele per norėdami pamatyti stoties vardą.

Tada spustelėkite, norėdami matyti oro stebėjimo ir prognozės.

Norėdami pakeisti žemėlapį: spustelėkite ant žalios mygtukų su juodo kryžiaus žemyn,; žalią mygtuką su brūkšneliu, jei norite nutolinti; arba žalių rodyklių gretimoms žemėlapius.


METAR-TAF: